Date String (YYYY-MM-DD hh:mm:ss) UTC,Instrument flags,Ambient pressure (hPa),Sample flow (lpm),Bypass flow (lpm),Sample temperature (°C),Ambient temperature (°C),ASC tube jacket temperature (°C),LED temperature (°C),Box temperature (°C),Sample RH (%),Span deviation,Mass concentration (μg/m³),Mass concentration (μg/m³),Mass concentration (μg/m³)
DateTimeUTC,F1_M11,P_M11,Q1_M11,Q2_M11,T1_M11,T2_M11,T3_M11,T4_M11,T5_M11,U1_M11,ZSPAN_M11,X0_M11,X2_M11,X1_M11
2022-10-13 02:00:00,,0830.8,5.01,0.00,30.4,28.9,00.0,39.3,32.2,13.4,0000.0,0018.14,0005.87,0004.55
2022-10-13 02:01:00,,0830.7,5.00,0.00,30.4,28.9,00.0,39.3,32.2,13.4,0000.0,0018.17,0005.75,0004.54
2022-10-13 02:02:00,,0830.8,5.00,0.00,30.4,28.9,00.0,39.3,32.2,13.4,0000.0,0018.14,0005.70,0004.54
2022-10-13 02:03:00,,0830.8,4.98,0.00,30.4,28.9,00.0,39.3,32.2,13.4,0000.0,0018.38,0005.68,0004.53
2022-10-13 02:04:00,,0830.8,5.00,0.00,30.5,28.9,00.0,39.3,32.2,13.4,0000.0,0017.89,0005.66,0004.52
2022-10-13 02:05:00,,0830.8,5.01,0.00,30.5,28.9,00.0,39.3,32.2,13.4,0000.0,0017.01,0005.66,0004.52
2022-10-13 02:06:00,,0830.8,5.00,0.00,30.5,29.0,00.0,39.3,32.3,13.4,0000.0,0015.58,0005.66,0004.54
2022-10-13 02:07:00,,0830.8,5.01,0.00,30.5,29.0,00.0,39.3,32.3,13.4,0000.0,0015.42,0005.59,0004.53
2022-10-13 02:08:00,,0830.8,4.99,0.00,30.5,29.0,00.0,39.3,32.3,13.3,0000.0,0015.54,0005.62,0004.53
2022-10-13 02:09:00,,0830.8,5.00,0.00,30.5,29.0,00.0,39.3,32.3,13.3,0000.0,0015.49,0005.65,0004.54
2022-10-13 02:10:00,,0830.8,5.00,0.00,30.5,28.9,00.0,39.3,32.3,13.3,0000.0,0015.33,0005.66,0004.54
2022-10-13 02:11:00,,0830.8,5.00,0.00,30.5,29.0,00.0,39.3,32.3,13.3,0000.0,0013.25,0005.67,0004.54
2022-10-13 02:12:00,,0830.7,5.00,0.00,30.5,28.9,00.0,39.3,32.3,13.3,0000.0,0012.71,0005.68,0004.54
2022-10-13 02:13:00,,0830.7,5.00,0.00,30.5,28.9,00.0,39.3,32.3,13.4,0000.0,0012.99,0005.71,0004.53
2022-10-13 02:14:00,,0830.7,5.00,0.00,30.5,28.9,00.0,39.3,32.3,13.4,0000.0,0013.01,0005.68,0004.52
2022-10-13 02:15:00,,0830.8,5.00,0.00,30.5,29.0,00.0,39.3,32.3,13.3,0000.0,0013.12,0005.64,0004.52
2022-10-13 02:16:00,,0830.8,5.00,0.00,30.5,29.0,00.0,39.3,32.3,13.3,0000.0,0014.98,0005.69,0004.52
2022-10-13 02:17:00,,0830.8,5.00,0.00,30.5,28.9,00.0,39.3,32.3,13.3,0000.0,0015.07,0005.73,0004.51
2022-10-13 02:18:00,,0830.8,5.00,0.00,30.5,28.9,00.0,39.3,32.3,13.2,0000.0,0015.11,0005.79,0004.52
2022-10-13 02:19:00,,0830.7,5.00,0.00,30.5,28.9,00.0,39.3,32.3,13.3,0000.0,0015.09,0005.78,0004.53
2022-10-13 02:20:00,,0830.6,5.01,0.00,30.5,29.0,00.0,39.3,32.3,13.2,0000.0,0014.95,0005.69,0004.51
2022-10-13 02:21:00,,0830.6,5.00,0.00,30.5,29.0,00.0,39.4,32.3,13.2,0000.0,0014.46,0005.65,0004.49
2022-10-13 02:22:00,,0830.6,5.00,0.00,30.5,29.0,00.0,39.4,32.3,13.2,0000.0,0014.46,0005.67,0004.47
2022-10-13 02:23:00,,0830.7,4.99,0.00,30.5,29.0,00.0,39.4,32.3,13.2,0000.0,0014.59,0005.68,0004.47
2022-10-13 02:24:00,,0830.8,5.00,0.00,30.5,29.0,00.0,39.4,32.3,13.2,0000.0,0014.29,0005.67,0004.46
2022-10-13 02:25:00,,0830.8,5.00,0.00,30.5,29.0,00.0,39.4,32.3,13.2,0000.0,0014.36,0005.70,0004.46
2022-10-13 02:26:00,,0830.8,5.00,0.00,30.5,28.9,00.0,39.4,32.3,13.2,0000.0,0014.91,0005.75,0004.45
2022-10-13 02:27:00,,0830.8,5.00,0.00,30.5,28.9,00.0,39.4,32.3,13.2,0000.0,0013.48,0005.69,0004.45
2022-10-13 02:28:00,,0830.8,5.00,0.00,30.5,29.0,00.0,39.4,32.3,13.2,0000.0,0014.40,0005.64,0004.43
2022-10-13 02:29:00,,0830.8,5.02,0.00,30.5,29.0,00.0,39.4,32.3,13.2,0000.0,0015.31,0005.66,0004.42
2022-10-13 02:30:00,,0830.8,5.00,0.00,30.5,29.0,00.0,39.4,32.3,13.2,0000.0,0015.44,0005.62,0004.40
2022-10-13 02:31:00,,0830.8,5.00,0.00,30.5,29.0,00.0,39.4,32.3,13.2,0000.0,0015.88,0005.65,0004.40
2022-10-13 02:32:00,,0830.8,5.00,0.00,30.5,29.0,00.0,39.4,32.3,13.2,0000.0,0016.35,0005.70,0004.42
2022-10-13 02:33:00,,0830.8,5.00,0.00,30.5,29.0,00.0,39.4,32.3,13.2,0000.0,0016.67,0005.70,0004.44
2022-10-13 02:34:00,,0830.7,5.00,0.00,30.5,29.0,00.0,39.4,32.3,13.2,0000.0,0017.80,0005.68,0004.45
2022-10-13 02:35:00,,0830.7,4.99,0.00,30.5,29.0,00.0,39.4,32.3,13.2,0000.0,0018.92,0005.65,0004.44
2022-10-13 02:36:00,,0830.6,5.00,0.00,30.5,29.0,00.0,39.4,32.3,13.2,0000.0,0019.31,0005.60,0004.44
2022-10-13 02:37:00,,0830.6,5.00,0.00,30.6,29.0,00.0,39.4,32.3,13.2,0000.0,0019.08,0005.57,0004.44
2022-10-13 02:38:00,,0830.6,5.00,0.00,30.6,29.0,00.0,39.4,32.3,13.1,0000.0,0018.93,0005.57,0004.44
2022-10-13 02:39:00,,0830.6,5.00,0.00,30.6,29.0,00.0,39.4,32.4,13.1,0000.0,0017.83,0005.62,0004.44
2022-10-13 02:40:00,,0830.6,5.00,0.00,30.6,29.0,00.0,39.4,32.4,13.1,0000.0,0017.27,0005.59,0004.44
2022-10-13 02:41:00,,0830.6,5.00,0.00,30.6,29.0,00.0,39.4,32.4,13.0,0000.0,0017.13,0005.60,0004.43
2022-10-13 02:42:00,,0830.6,5.00,0.00,30.6,29.0,00.0,39.4,32.4,13.0,0000.0,0017.79,0005.65,0004.43
2022-10-13 02:43:00,,0830.6,5.00,0.00,30.6,29.0,00.0,39.4,32.4,13.0,0000.0,0017.92,0005.60,0004.42
2022-10-13 02:44:00,,0830.6,5.00,0.00,30.6,29.0,00.0,39.4,32.4,13.0,0000.0,0018.51,0005.57,0004.40
2022-10-13 02:45:00,,0830.6,5.00,0.00,30.6,29.0,00.0,39.4,32.4,13.0,0000.0,0018.48,0005.55,0004.37
2022-10-13 02:46:00,,0830.6,5.00,0.00,30.6,29.0,00.0,39.4,32.4,13.0,0000.0,0018.05,0005.52,0004.36
2022-10-13 02:47:00,,0830.6,5.00,0.00,30.6,29.0,00.0,39.4,32.4,13.1,0000.0,0018.64,0005.55,0004.36
2022-10-13 02:48:00,,0830.6,5.00,0.00,30.6,28.9,00.0,39.4,32.4,13.0,0000.0,0017.85,0005.56,0004.35
2022-10-13 02:49:00,,0830.6,5.00,0.00,30.6,28.9,00.0,39.4,32.4,13.0,0000.0,0017.40,0005.55,0004.33
2022-10-13 02:50:00,,0830.6,5.00,0.00,30.6,29.0,00.0,39.4,32.4,13.0,0000.0,0017.56,0005.55,0004.32
2022-10-13 02:51:00,,0830.6,5.00,0.00,30.6,29.0,00.0,39.4,32.4,13.0,0000.0,0017.29,0005.53,0004.31
2022-10-13 02:52:00,,0830.6,5.00,0.00,30.6,29.0,00.0,39.4,32.4,13.0,0000.0,0017.15,0005.49,0004.31
2022-10-13 02:53:00,,0830.6,5.00,0.00,30.6,29.0,00.0,39.4,32.4,13.0,0000.0,0017.00,0005.44,0004.32
2022-10-13 02:54:00,,0830.6,5.00,0.00,30.6,29.0,00.0,39.4,32.4,13.0,0000.0,0017.66,0005.48,0004.31
2022-10-13 02:55:00,,0830.6,5.00,0.00,30.6,29.0,00.0,39.4,32.4,13.0,0000.0,0019.16,0005.49,0004.32
2022-10-13 02:56:00,,0830.7,5.00,0.00,30.6,29.0,00.0,39.4,32.4,13.0,0000.0,0018.37,0005.55,0004.33
2022-10-13 02:57:00,,0830.7,5.00,0.00,30.6,29.0,00.0,39.4,32.4,13.0,0000.0,0019.19,0005.61,0004.36
2022-10-13 02:58:00,,0830.7,5.00,0.00,30.6,29.0,00.0,39.4,32.4,13.0,0000.0,0017.99,0005.61,0004.35
2022-10-13 02:59:00,,0830.6,5.00,0.00,30.6,29.0,00.0,39.4,32.4,13.0,0000.0,0018.44,0005.62,0004.35
